This demonstration page uses our WeatherBlox Daily Observations layout. Learn more.

Left ArrowRight Arrow

41.55636, -103.73856

Hourly Observations for February 26, 2018

Temp ( °F °C ) Dew Point ( °F °C ) Humidity (%) Winds ( mph kmh ) Pressure ( in mb ) Visibility ( mi km ) Precip ( " mm )
12:53 am 00:53 Clear 22 -5.6 14 -10 71 71 E 5 7 30.00 1016 10 16 N/A
1:53 am 01:53 Clear 23 -5 14 -10 68 68 NE 5 7 29.99 1016 10 16 N/A
2:53 am 02:53 Clear 36 2.2 13 -10.6 39 39 WSW 18 30 29.93 1014 10 16 N/A
3:53 am 03:53 Clear 34 1.1 13 -10.6 42 42 WSW 8 13 29.94 1014 10 16 N/A
4:53 am 04:53 Clear 31 -0.6 12 -11.1 45 45 W 8 13 29.96 1015 10 16 N/A
5:53 am 05:53 Clear 28 -2.2 11 -11.7 49 49 NNW 5 7 29.97 1015 10 16 N/A
6:53 am 06:53 Sunny 27 -2.8 12 -11.1 53 53 W 8 13 29.98 1015 10 16 N/A
7:53 am 07:53 Sunny 33 0.6 15 -9.4 47 47 S 3 6 29.98 1015 10 16 N/A
8:53 am 08:53 Sunny 36 2.2 18 -7.8 48 48 ESE 6 9 29.98 1015 10 16 N/A
9:53 am 09:53 Sunny 42 5.6 18 -7.8 38 38 SSE 3 6 29.96 1015 10 16 N/A
10:53 am 10:53 Sunny 46 7.8 11 -11.7 24 24 VRB 6 9 29.93 1014 10 16 N/A
11:53 am 11:53 Sunny 48 8.9 19 -7.2 32 32 SE 13 20 29.91 1013 10 16 N/A
12:53 pm 12:53 Sunny 51 10.6 18 -7.8 27 27 SW 14 22 29.87 1012 10 16 N/A
1:53 pm 13:53 Sunny 52 11.1 16 -8.9 24 24 SSW 20 31 29.86 1011 10 16 N/A
2:53 pm 14:53 Mostly Sunny 53 11.7 16 -8.9 23 23 S 18 30 29.82 1010 10 16 N/A
3:53 pm 15:53 Sunny 54 12.2 18 -7.8 24 24 SSW 14 22 29.82 1010 10 16 N/A
4:53 pm 16:53 Sunny 51 10.6 18 -7.8 27 27 SW 6 9 29.85 1011 10 16 N/A
5:53 pm 17:53 Clear 40 4.4 21 -6.1 47 47 N 9 15 29.91 1013 10 16 N/A
6:53 pm 18:53 Clear 36 2.2 23 -5 59 59 NNE 10 17 29.93 1013 10 16 N/A
7:53 pm 19:53 Clear 38 3.3 23 -5 55 55 NNE 12 19 29.91 1013 10 16 N/A
8:53 pm 20:53 Clear 35 1.7 23 -5 61 61 S 6 9 29.92 1013 10 16 N/A
9:53 pm 21:53 Clear 31 -0.6 24 -4.4 76 76 NNE 5 7 29.92 1013 10 16 N/A
10:53 pm 22:53 Clear 32 undefined 23 -5 69 69 N 3 6 29.91 1013 10 16 N/A
11:53 pm 23:53 Clear 28 -2.2 22 -5.6 78 78 NNE 5 7 29.91 1013 10 16 N/A

Powered by AerisWeather